User: anonymous   Login
Location: Lone Wolf Observatory
(41.0360°N, 89.2260°W)
Time: 07:48:26
(UTC-05:00)
Language:

Cosmos 1378 Rocket - Orbit

View from above orbital plane
View from above orbital plane
View from above satellite
View from above satellite

Ground track
Ground track

The orbit data is extracted from the following two-line orbital elements,

1 13272U 82059B   14304.09968035  .00000543  00000-0  62042-4 0  8990
2 13272 082.5090 321.0844 0019677 051.8001 308.4982 14.84112285749468
Epoch (UTC): 31 October 2014 02:23:32
Eccentricity: 0.0019677
inclination: 82.5090°
perigee height: 602 km
apogee height: 630 km
right ascension of ascending node: 321.0844°
argument of perigee: 51.8001°
revolutions per day: 14.84112285
mean anomaly at epoch: 308.4982°
orbit number at epoch: 74946

The dashed part of the orbit path shows where the satellite is in the earth's shadow,  

DLR